STARLINK-31850, 59903

Orbit data source: Space-Track

STARLINK-31850, 59903 is a payload satellite owned by SpaceX/Seattle (US) in LEO that was launched on Tue, 28 May 2024 UTC via an FALCON 9 launch vehicle from the Air Force Eastern Test Range (AFETR). Payload-class satellites include a variety of spacecraft equipped with specific instruments for various scientific and technological missions. These include communications satellites like Starlink; space stations such as the ISS; scientific satellites like the Hubble; Earth observation satellites from companies like Planet Labs, Umbra, and HawkEye 360; GPS; miniature CubeSats for education and research; and military/defense satellites.

Loading next visibility...
Identifier
59903, 2024-100U
Orbit
LEO
Country
Flag of USUS
Related business
Manufacturer
SpaceX/Seattle
Mission
Operational Commercial Communications
Bus & Motor
STARLINK V2M, Unknown motor
Mass
730 kg wet, ~700 kg dry
Launch date (UTC)
2024-05-28 (2 years ago)
Launch vehicle
FALCON 9
Launch site
Air Force Eastern Test Range (AFETR)
Object type
Payload
Rocket body
Debris
Shape & HBR
Box + 2 Pan, 17.7 m
Radar Cross Section
33.884 m², Large (>1 m²)

Expand to show TLE details & history
Last TLE update: 2 days ago

TLE from 2 days ago
0 STARLINK-31850
1 59903U 24100U   26171.30450957  .00000415  00000-0  24622-4 0  9993
2 59903  43.0028 265.5993 0001304 269.5282  90.5420 15.27577511116791
Epoch: 2026-06-20T07:18Z
TLE epoch observation values (Epoch: 2026-06-20T07:18:29.626Z)
Latitude
-0.00005°
Longitude
-112.54525°
Altitude
482.841 km
Speed
7.626 km/s
True Right ascension
17h 42m 23s
True Declination
0° 00' 00"
Sunlit
Object was in full shadow at epoch
Visualization orbit readout
Latitude
Unknown
Longitude
Unknown
Altitude
Unknown
Speed
Unknown
Apparent Right ascension
Unknown
Apparent Declination
Unknown
Sunlit
N/A
Visualization observer readout
Local Sidereal Time
21:46:03
Azimuth
Unknown
Elevation
Unknown
Doppler factor
Unknown
Orbital elements
Apogee altitude
485.896 km
Perigee altitude
484.106 km
Semi-major axis
6,863.138 km
Eccentricity
0.00013
Inclination
43.0028°
RAAN
265.5993°
Arg. of periapsis
269.5282°
True anomaly
90.55694°
Mean anomaly
90.542°
Eccentric anomaly
90.54947°
Mean motion
3.81732 °/min
Orbital period
94.31 mins
BSTAR
0.000024622
Loading maneuver chart data...
Computing Atmospheric mass density...
Loading historical data...
Loading historical data...
Loading historical data...
Loading historical data...
Loading historical data...
Loading historical data...
Loading historical data...

Documentation

Showing up to 5 results
|